STARLINK-1644, 46532

Orbit data source: Space-Track

STARLINK-1644, 46532 is a payload satellite owned by SpaceX/Seattle (US) in LEO that was launched on Tue, 06 Oct 2020 UTC via an FALCON 9 launch vehicle from the Air Force Eastern Test Range (AFETR). Payloads include a variety of satellites, spacecraft, and rockets equipped with specific instruments for various scientific and technological missions. These include communications satellites like Starlink; space stations such as the ISS; scientific satellites like the Hubble; Earth observation satellites from companies like Planet Labs, Umbra, and HawkEye 360; GPS; miniature CubeSats for education and research; and military/defense satellites.

Loading next visibility...
STARLINK-1644 details
Identifier
46532, 2020-070A
Orbit
LEO
Last TLE update20 hours ago
Origin
Flag of USSpaceX/Seattle (US)
ManufacturerSpaceX/Seattle
MissionPartially operational Commercial Communications
Bus & MotorSTARLINK, Unknown motor
Mass260 kg wet, ~248 kg dry
Launch date (UTC)
2020-10-06 (4 years ago)
Launch vehicle
FALCON 9
Launch site
Air Force Eastern Test Range (AFETR)
Object type
Payload
Rocket body
Debris
Shape & HBRBox + 1 Pan, 8.86 m
Radar Cross Section13.562 m², Large (>1 m²)

Expand to show TLE details & history

TLE from 20 hours ago
0 STARLINK-1644
1 46532U 20070A   24360.58335648  .00234396  00000-0  21330-2 0  9994
2 46532  53.0513 330.9203 0000870 113.8613 128.0617 15.66684692  5864
Epoch: 2024-12-25T14:00Z
Definitive object data (Epoch: 2024-12-25T14:00:01.999Z)
Latitude-45.03745°
Longitude-105.16593°
Altitude383.981 km
Speed7.679 km/s
True Right ascension13h 17m 40s
True Declination-44° 51' 22"
Sunlit
Object was in daylight at TLE epoch
Visualization TLE readout
Latitude-1.927°
Longitude20.71205°
Altitude368.735 km
Speed7.689 km/s
Apparent Right ascension21h 42m 41s
Apparent Declination-20° 15' 24"
Sunlit
Object is in daylight
Visualization observer readout
Local Sidereal Time09:44:47
Azimuth1.456° NNE
Elevation-70.335°
Doppler factor1
Orbital elements
Apogee altitude369.263 km
Perigee altitude368.089 km
Semi-major axis6,746.813 km
Eccentricity0.000087
Inclination53.0513°
RAAN330.9203°
Arg. of periapsis113.8613°
True anomaly128.06955°
Mean anomaly128.0617°
Eccentric anomaly128.06562°
Mean motion3.91647 °/min
BSTAR0.002133
Orbital period91.92 mins
Loading maneuver chart data...
Loading historical data...
Loading historical data...
Loading historical data...
Loading historical data...
Loading historical data...
Loading historical data...
Loading historical data...

STARLINK-1644 Visibility forecast

Observer location: undefined°, undefined

Span
Click to sort rows by Start time (UTC) header in descending order
Start Az.
Max El. time (UTC)
Max El. Az.
Max El.
End time (UTC)
End Az.
5 mins2024-12-27 00:20:36.564Z209.642° SW2024-12-27 00:23:36.564Z120.489° SE34.878°2024-12-27 00:25:36.564Z65.678° ENE
|